Weather History for Mackinac Island, MI

Change the Weather History Date:

Sunday, March 2, 2014

  Actual Average Record
Temperature  
Mean Temperature -4 °F -  
Max Temperature 1 °F 26 °F 46 °F (1993)
Min Temperature -8 °F 14 °F -14 °F (1989)
Degree Days  
Heating Degree Days 68    
Moisture  
Dew Point -10 °F    
Average Humidity 72    
Maximum Humidity 83    
Minimum Humidity 61    
Precipitation  
Precipitation 0.00 in - - ()
Sea Level Pressure  
Sea Level Pressure 30.31 in    
Wind  
Wind Speed 7 mph (West)    
Max Wind Speed 17 mph    
Max Gust Speed 23 mph    
Visibility 9 miles    
Events      
Averages and records for this station are not official NWS values.
T = Trace of Precipitation, MM = Missing Value Source: NWS Daily Summary

Daily Weather History Graph

Daily Weather History Graph

Search for Another Location

Airport:

Trip Planner

Search our weather history database for the weather conditions in past years. The results will help you decide how hot, cold, wet, or windy it might be!

Date:

Astronomy

Mar. 02, 2014 Rise Set
Actual Time 7:15 AM EST 6:26 PM EST
Civil Twilight 6:45 AM EST 6:56 PM EST
Nautical Twilight 6:11 AM EST 7:31 PM EST
Astronomical Twilight 5:36 AM EST 8:05 PM EST
Moon 7:39 AM EST (3/2) 8:30 PM EST (3/2)
Length of Visible Light 12h 10m
Length of Day
11h 11m
Waxing Crescent, 3% of the Moon is Illuminated
Mar 2
Waxing Crescent
Mar 8
First Quarter
Mar 16
Full
Mar 23
Last Quarter
Mar 30
New

Hourly Weather History & Observations

Time (EST) Temp. Windchill Dew Point Humidity Pressure Visibility Wind Dir Wind Speed Gust Speed Precip Events Conditions
12:17 AM -3.3 °F -13.7 °F -11.2 °F 69% 30.32 in 10.0 mi West 4.6 mph - N/A   Clear
12:38 AM -3.1 °F -16.7 °F -11.2 °F 68% 30.32 in 10.0 mi West 6.9 mph - N/A   Clear
12:57 AM -3.3 °F -15.4 °F -11.2 °F 69% 30.31 in 10.0 mi West 5.8 mph - N/A   Clear
1:17 AM -3.8 °F -17.5 °F -11.4 °F 70% 30.32 in 10.0 mi West 6.9 mph - N/A   Clear
1:38 AM -4.2 °F -16.5 °F -11.4 °F 71% 30.33 in 10.0 mi West 5.8 mph - N/A   Clear
1:57 AM -4.0 °F -16.3 °F -11.2 °F 71% 30.32 in 10.0 mi West 5.8 mph - N/A   Mostly Cloudy
2:18 AM -4.2 °F -16.5 °F -11.2 °F 72% 30.32 in 10.0 mi West 5.8 mph - N/A   Mostly Cloudy
2:37 AM -4.2 °F -18.0 °F -11.2 °F 72% 30.32 in 10.0 mi West 6.9 mph - N/A   Mostly Cloudy
2:57 AM -4.5 °F -18.4 °F -11.0 °F 74% 30.32 in 10.0 mi West 6.9 mph - N/A   Mostly Cloudy
3:18 AM -4.0 °F -17.8 °F -10.3 °F 74% 30.33 in 10.0 mi West 6.9 mph - N/A   Mostly Cloudy
3:38 AM -4.0 °F -17.8 °F -10.3 °F 74% 30.33 in 10.0 mi West 6.9 mph - N/A   Overcast
3:57 AM -4.5 °F -19.7 °F -10.5 °F 76% 30.33 in 10.0 mi West 8.1 mph - N/A   Scattered Clouds
4:18 AM -5.8 °F -16.7 °F -11.2 °F 77% 30.33 in 10.0 mi WSW 4.6 mph - N/A   Scattered Clouds
4:37 AM -5.8 °F -18.4 °F -11.0 °F 78% 30.34 in 10.0 mi WSW 5.8 mph - N/A   Overcast
4:58 AM -5.1 °F -15.8 °F -10.3 °F 78% 30.34 in 10.0 mi WSW 4.6 mph - N/A   Overcast
5:18 AM -4.9 °F -17.4 °F -9.9 °F 79% 30.34 in 10.0 mi WSW 5.8 mph - N/A   Mostly Cloudy
5:37 AM -5.6 °F -18.2 °F -10.5 °F 79% 30.34 in 10.0 mi West 5.8 mph - N/A   Scattered Clouds
5:58 AM -6.3 °F -23.1 °F -11.2 °F 79% 30.34 in 10.0 mi West 9.2 mph - N/A   Clear
6:18 AM -7.6 °F -22.1 °F -12.3 °F 80% 30.34 in 10.0 mi West 6.9 mph - N/A   Clear
6:37 AM -7.8 °F -23.6 °F -12.3 °F 81% 30.34 in 10.0 mi WNW 8.1 mph - N/A   Scattered Clouds
6:58 AM -8.5 °F -21.6 °F -13.0 °F 81% 30.33 in 10.0 mi WNW 5.8 mph - N/A   Scattered Clouds
7:18 AM -8.5 °F -21.6 °F -13.0 °F 81% 30.34 in 10.0 mi WNW 5.8 mph - N/A   Clear
7:37 AM -8.5 °F -21.6 °F -12.5 °F 83% 30.34 in 10.0 mi WNW 5.8 mph - N/A   Clear
7:58 AM -7.6 °F -18.8 °F -12.1 °F 81% 30.34 in 10.0 mi WNW 4.6 mph - N/A   Clear
8:18 AM -8.3 °F -21.4 °F -12.8 °F 81% 30.34 in 10.0 mi NW 5.8 mph - N/A   Scattered Clouds
8:37 AM -7.1 °F -21.4 °F -12.1 °F 79% 30.34 in 10.0 mi NW 6.9 mph - N/A   Scattered Clouds
8:58 AM -6.9 °F -15.7 °F -12.6 °F 76% 30.35 in 10.0 mi West 3.5 mph - N/A   Clear
9:18 AM -6.0 °F - -12.3 °F 74% 30.34 in 10.0 mi Calm Calm - N/A   Clear
9:38 AM -5.1 °F -15.8 °F -11.6 °F 74% 30.34 in 10.0 mi West 4.6 mph - N/A   Clear
9:58 AM -6.9 °F -15.7 °F -13.0 °F 75% 30.34 in 10.0 mi SW 3.5 mph - N/A   Clear
10:17 AM -6.3 °F -17.3 °F -12.5 °F 75% 30.33 in 10.0 mi West 4.6 mph - N/A   Clear
10:38 AM -5.1 °F -17.6 °F -11.7 °F 73% 30.33 in 10.0 mi SW 5.8 mph - N/A   Clear
10:58 AM -4.9 °F -17.4 °F -11.7 °F 72% 30.32 in 10.0 mi WSW 5.8 mph - N/A   Clear
11:17 AM -4.2 °F -18.0 °F -11.2 °F 72% 30.33 in 10.0 mi SW 6.9 mph - N/A   Clear
11:38 AM -3.3 °F -19.3 °F -10.3 °F 72% 30.33 in 2.0 mi WSW 9.2 mph - N/A   Haze
11:58 AM -3.1 °F -16.7 °F -10.3 °F 71% 30.33 in 1.2 mi SW 6.9 mph 16.1 mph N/A   Haze
12:17 PM -2.2 °F -20.7 °F -9.8 °F 70% 30.33 in 2.0 mi WSW 12.7 mph 19.6 mph N/A   Haze
12:38 PM -1.8 °F -19.4 °F -9.8 °F 69% 30.32 in 1.2 mi WSW 11.5 mph 18.4 mph N/A   Haze
12:57 PM -0.4 °F -16.7 °F -11.0 °F 61% 30.31 in 1.2 mi WSW 10.4 mph 17.3 mph N/A   Haze
1:18 PM -0.8 °F -18.9 °F -10.3 °F 64% 30.31 in 1.5 mi WSW 12.7 mph 21.9 mph N/A   Haze
1:38 PM -0.4 °F -14.7 °F -10.3 °F 63% 30.29 in 2.0 mi WSW 8.1 mph 18.4 mph N/A   Haze
1:58 PM -0.4 °F -19.9 °F -9.6 °F 65% 30.29 in 0.8 mi WSW 15.0 mph 21.9 mph N/A   Haze
2:18 PM -0.0 °F -17.1 °F -9.4 °F 65% 30.28 in 2.0 mi WSW 11.5 mph 18.4 mph N/A   Haze
2:38 PM 0.5 °F -18.0 °F -8.5 °F 66% 30.28 in 2.0 mi WSW 13.8 mph 23.0 mph N/A   Haze
2:58 PM 0.9 °F -14.2 °F -7.8 °F 67% 30.28 in 7.0 mi WSW 9.2 mph 23.0 mph N/A   Clear
3:18 PM 1.0 °F -19.3 °F -7.1 °F 69% 30.27 in 7.0 mi WSW 17.3 mph 21.9 mph N/A   Clear
3:37 PM 1.4 °F -14.5 °F -8.3 °F 64% 30.27 in 10.0 mi WSW 10.4 mph 21.9 mph N/A   Clear
3:58 PM 1.4 °F -16.1 °F -6.9 °F 68% 30.27 in 7.0 mi WSW 12.7 mph 23.0 mph N/A   Clear
4:18 PM 1.4 °F -15.3 °F -6.9 °F 68% 30.27 in 10.0 mi WSW 11.5 mph 23.0 mph N/A   Clear
4:37 PM 1.4 °F -14.5 °F -8.0 °F 65% 30.26 in 10.0 mi WSW 10.4 mph 19.6 mph N/A   Clear
4:58 PM 1.4 °F -15.3 °F -9.0 °F 62% 30.25 in 10.0 mi WSW 11.5 mph 20.7 mph N/A   Clear
5:18 PM 1.4 °F -15.3 °F -8.5 °F 63% 30.25 in 10.0 mi WSW 11.5 mph 20.7 mph N/A   Clear
5:38 PM 1.4 °F -15.3 °F -8.7 °F 63% 30.26 in 10.0 mi WSW 11.5 mph 18.4 mph N/A   Clear
5:58 PM 1.0 °F -14.9 °F -8.9 °F 63% 30.26 in 10.0 mi WSW 10.4 mph 16.1 mph N/A   Clear
6:18 PM 0.1 °F -16.0 °F -6.9 °F 72% 30.26 in 10.0 mi WSW 10.4 mph 16.1 mph N/A   Clear
6:38 PM -0.9 °F -17.4 °F -7.4 °F 74% 30.26 in 10.0 mi WSW 10.4 mph 16.1 mph N/A   Clear
6:58 PM -1.3 °F -16.8 °F -7.6 °F 75% 30.27 in 10.0 mi WSW 9.2 mph - N/A   Clear
7:18 PM -1.3 °F -14.5 °F -7.6 °F 75% 30.28 in 10.0 mi West 6.9 mph - N/A   Clear
7:38 PM -1.7 °F -17.3 °F -8.0 °F 75% 30.29 in 10.0 mi West 9.2 mph - N/A   Clear
7:58 PM -1.8 °F -15.2 °F -8.9 °F 72% 30.30 in 10.0 mi WNW 6.9 mph - N/A   Clear
8:17 PM -1.8 °F -17.5 °F -10.1 °F 68% 30.30 in 10.0 mi NW 9.2 mph - N/A   Clear
8:38 PM -2.4 °F -18.2 °F -11.2 °F 66% 30.30 in 10.0 mi NW 9.2 mph - N/A   Clear
8:58 PM -2.9 °F -18.8 °F -11.4 °F 67% 30.30 in 10.0 mi NW 9.2 mph - N/A   Clear
9:17 PM -3.8 °F -17.5 °F -11.7 °F 69% 30.31 in 10.0 mi NW 6.9 mph - N/A   Clear
9:38 PM -4.2 °F -19.3 °F -11.7 °F 70% 30.33 in 10.0 mi NW 8.1 mph - N/A   Clear
9:58 PM -4.9 °F -18.8 °F -11.9 °F 72% 30.34 in 10.0 mi NW 6.9 mph - N/A   Clear
10:18 PM -5.4 °F -18.0 °F -11.9 °F 74% 30.34 in 10.0 mi NW 5.8 mph - N/A   Clear
10:38 PM -4.7 °F -18.6 °F -10.8 °F 75% 30.34 in 10.0 mi WNW 6.9 mph - N/A   Clear
10:58 PM -5.3 °F -17.8 °F -11.4 °F 75% 30.34 in 10.0 mi West 5.8 mph - N/A   Clear
11:17 PM -5.6 °F -16.5 °F -11.4 °F 76% 30.34 in 10.0 mi West 4.6 mph - N/A   Clear
11:38 PM -5.8 °F -19.9 °F -11.4 °F 77% 30.34 in 10.0 mi West 6.9 mph - N/A   Clear
11:57 PM -6.9 °F -21.2 °F -12.3 °F 77% 30.35 in 10.0 mi West 6.9 mph - N/A   Clear